CDT,Max TemperatureF,Mean TemperatureF,Min TemperatureF,Max Dew PointF,MeanDew PointF,Min DewpointF,Max Humidity, Mean Humidity, Min Humidity, Max Sea Level PressureIn, Mean Sea Level PressureIn, Min Sea Level PressureIn, Max VisibilityMiles, Mean VisibilityMiles, Min VisibilityMiles, Max Wind SpeedMPH, Mean Wind SpeedMPH, Max Gust SpeedMPH,PrecipitationIn, CloudCover, Events, WindDirDegrees
2010-10-1,73,58,42,48,42,36,100,63,25,30.15,30.09,30.01,10,7,0,10,2,17,0.00,1,Fog,285
2010-10-2,60,56,51,52,45,36,88,71,54,30.25,30.11,29.96,10,10,7,20,9,31,0.01,7,Rain,356
2010-10-3,57,50,42,43,38,32,93,67,38,30.38,30.34,30.27,10,10,7,15,6,22,0.00,4,Rain,12
2010-10-4,60,48,35,39,35,30,93,62,31,30.44,30.39,30.35,10,10,10,12,4,16,0.00,2,,22
2010-10-5,68,50,32,41,32,28,93,60,23,30.43,30.36,30.28,10,9,1,7,1,,0.00,0,,313
2010-10-6,78,58,39,46,39,34,81,55,24,30.28,30.15,29.97,10,10,5,15,4,22,0.00,0,,270
2010-10-7,77,64,51,48,39,25,82,51,14,30.14,30.08,30.00,10,10,10,9,4,9,0.00,0,,300
2010-10-8,82,60,37,43,33,25,93,46,13,30.14,30.09,30.01,10,10,10,14,3,17,0.00,0,,249
2010-10-9,89,68,46,52,45,39,87,49,22,30.06,30.01,29.95,10,10,10,13,3,16,0.00,0,,251
2010-10-10,86,68,50,52,47,45,88,54,23,30.00,29.94,29.84,10,10,5,12,2,20,0.00,0,,236
2010-10-11,84,68,51,52,45,39,82,50,20,29.88,29.84,29.79,10,10,10,15,3,22,0.00,0,,254
2010-10-12,80,66,53,61,55,48,100,82,32,29.96,29.91,29.87,10,4,0,7,1,18,0.01,5,Fog-Rain,42
2010-10-13,66,58,51,55,51,34,100,76,32,30.11,30.03,29.96,10,7,2,13,4,20,0.02,2,Rain-Thunderstorm,1
2010-10-14,68,52,35,39,31,25,87,54,20,30.16,30.07,29.88,10,10,10,20,7,28,0.00,0,,266
2010-10-15,64,55,46,43,38,34,71,52,39,30.14,29.99,29.76,10,10,7,13,9,20,0.00,1,,338
2010-10-16,73,53,33,43,36,32,100,61,22,30.18,30.11,29.98,10,8,0,18,4,26,0.00,0,Fog,209
2010-10-17,69,54,39,46,38,36,93,56,28,30.13,30.07,30.03,10,10,2,9,2,,0.00,0,,32
2010-10-18,60,51,42,41,37,34,81,60,36,30.09,30.03,29.96,10,10,5,8,2,,0.00,4,Rain,61
2010-10-19,62,46,30,43,32,28,100,67,27,30.06,30.01,29.95,10,6,0,10,1,,0.00,3,Fog,315
2010-10-20,69,55,41,36,33,30,76,48,23,29.94,29.83,29.71,10,10,10,22,11,30,0.00,0,,243
2010-10-21,57,47,37,43,31,23,93,55,27,30.02,29.93,29.77,10,10,10,18,7,26,0.00,0,,302
2010-10-22,69,48,28,34,26,18,87,50,15,30.20,30.12,30.06,10,10,10,12,3,17,0.00,1,,190
2010-10-23,66,60,53,54,42,30,88,57,36,30.10,30.01,29.92,10,10,3,25,9,33,0.09,5,Rain-Thunderstorm,176
2010-10-24,75,66,57,57,49,41,77,55,45,29.91,29.81,29.66,10,10,7,23,14,29,0.00,2,Rain-Thunderstorm,195
2010-10-25,73,65,57,61,58,55,94,78,60,29.63,29.57,29.45,10,8,0,17,11,24,0.00,3,Fog-Thunderstorm,195
2010-10-26,71,64,55,64,52,39,88,64,42,29.50,29.25,29.07,10,10,2,40,24,50,0.04,5,Rain-Thunderstorm,208
2010-10-27,66,55,44,39,33,25,66,45,23,29.89,29.67,29.54,10,10,10,37,20,50,0.00,1,,232
2010-10-28,46,44,41,34,31,30,70,61,53,30.30,30.11,29.90,10,10,10,24,19,34,0.00,8,,279
2010-10-29,51,38,26,28,27,23,93,61,33,30.40,30.31,30.16,10,10,10,9,6,,0.00,2,Thunderstorm,251
2010-10-30,62,50,37,37,30,27,66,51,29,30.11,29.92,29.80,10,10,10,25,13,32,0.00,0,,223
2010-10-31,53,45,37,41,32,21,87,61,30,30.26,30.14,29.95,10,10,10,12,7,16,0.00,1,,31